Location: *
(46.4000°N, 12.6667°E)
Time: 22:00:20
(UTC+00:00)

Envisat - Pass Details

Date: 12 March 2021
Orbit: 764 x 766 km, 98.1° (Epoch: 12 April)

Event Time Altitude Azimuth Distance (km) Brightness Sun altitude
Rises 04:23:24 0° 18° (NNE) 3,243 6.6 -11.9°
Reaches altitude 10° 04:25:49 10° 25° (NNE) 2,312 5.9 -11.5°
Maximum altitude 04:30:42 46° 98° (E) 1,028 4.2 -10.7°
Drops below altitude 10° 04:35:33 10° 172° (S) 2,294 5.5 -9.8°
Sets 04:37:56 0° 178° (S) 3,215 6.2 -9.4°
